This is the latest recevied weather packets stored in our database for station/object K7SKM. If no packets are shown the sender has not sent any weather packets the latest 10 day(s).
| Time | Temp. | Humidity | Pressure | Rain* | Wind** | Luminosity | Snow |
|---|---|---|---|---|---|---|---|
| 1787534540 | 23.89° C | 49% | 1024.6 hPa | 0 mm | - | 54 W/m² | - |
| 1787534239 | 23.89° C | 49% | 1024.5 hPa | 0 mm | - | 55 W/m² | - |
| 1787533935 | 23.89° C | 49% | 1024.6 hPa | 0 mm | - | 64 W/m² | - |
| 1787533631 | 23.89° C | 49% | 1024.7 hPa | 0 mm | - | 106 W/m² | - |
| 1787533328 | 23.33° C | 50% | 1024.5 hPa | 0 mm | - | 121 W/m² | - |
| 1787533021 | 23.89° C | 50% | 1024.6 hPa | 0 mm | - | 56 W/m² | - |
| 1787532717 | 23.89° C | 50% | 1024.6 hPa | 0 mm | - | 56 W/m² | - |
| 1787532412 | 23.89° C | 49% | 1024.8 hPa | 0 mm | - | 81 W/m² | - |
| 1787532108 | 23.89° C | 49% | 1024.6 hPa | 0 mm | - | 79 W/m² | - |
| 1787531804 | 24.44° C | 49% | 1024.8 hPa | 0 mm | - | 118 W/m² | - |
| 1787531501 | 24.44° C | 49% | 1024.7 hPa | 0 mm | - | 92 W/m² | - |
| 1787531195 | 24.44° C | 48% | 1024.6 hPa | 0 mm | - | 116 W/m² | - |
| 1787530891 | 25° C | 48% | 1024.7 hPa | 0 mm | - | 100 W/m² | - |
| 1787530586 | 24.44° C | 47% | 1024.5 hPa | 0 mm | - | 131 W/m² | - |
| 1787530280 | 24.44° C | 48% | 1024.7 hPa | 0 mm | - | 189 W/m² | - |
| 1787529976 | 24.44° C | 49% | 1024.7 hPa | 0 mm | - | 144 W/m² | - |
| 1787529671 | 25° C | 47% | 1024.6 hPa | 0 mm | - | 141 W/m² | - |
| 1787529367 | 24.44° C | 48% | 1024.7 hPa | 0 mm | - | 147 W/m² | - |
| 1787529067 | 25° C | 48% | 1024.9 hPa | 0 mm | - | 144 W/m² | - |
| 1787528763 | 23.89° C | 49% | 1024.8 hPa | 0 mm | - | 142 W/m² | - |
| 1787528463 | 23.89° C | 50% | 1024.7 hPa | 0 mm | - | 129 W/m² | - |
| 1787528159 | 23.89° C | 50% | 1025 hPa | 0 mm | - | 136 W/m² | - |
| 1787527855 | 23.89° C | 50% | 1024.8 hPa | 0 mm | - | 154 W/m² | - |
| 1787527550 | 23.89° C | 50% | 1024.7 hPa | 0 mm | - | 140 W/m² | - |
| 1787527246 | 23.33° C | 52% | 1024.9 hPa | 0 mm | - | 123 W/m² | - |
* Rain latest hour (hover to see other rain measurements)
** Current wind speed in m/s (hover to see current wind gust speed)